Flag for Canada Weather past 2 weeks in Morden, Manitoba, Canada

Now
70 °F

Mild.


Feels Like: 76 °F
Forecast: 58 / 77 °F
Wind: 8 mph from Northeast

Location: Morden CDA CS

Current Time: Jul 22, 2014 at 3:54:46 PM

Latest Report: Jul 22, 2014 at 11:00 AM


Visibility: N/A

Pressure: 30.10 "Hg

Humidity: 58%

Dew point: 55 °F

Location of MordenLocation

Historic Weather in Morden — Graph

°F

Morden temperature yesterday

Maximum temperature yesterday: 78 °F (at 1:00 PM)
Minimum temperature yesterday: 64 °F (at 3:00 AM)
Average temperature yesterday: 70 °F

Past Weeks' High & Low Weather Summary

 TemperatureHumidityPressure
High88 °F (Jul 20, 2:00 PM)95% (Jul 16, 5:00 AM)30.20 "Hg (Jul 16, 5:00 AM)
Low48 °F (Jul 14, 4:00 AM)34% (Jul 20, 2:00 PM)29.48 "Hg (Jul 20, 10:00 AM)
Average66 °F69%29.86 "Hg
* Reported Jul 7 11:00 AM — Jul 22 11:00 AM, Morden, Weather by CustomWeather, © 2014

Note: Actual official high and low records may vary slightly from our data, if they occured in-between our weather recording intervals... More about our weather records

Advertising

Morden weather history for previous 24 hours

 ConditionsComfort  
Time TempWeatherWind HumidityBarometerVisibility
11:00 AM
Jul 22
70 °FMild.8 mph58%30.10 "HgN/A
10:00 AM68 °FMild.8 mph69%30.09 "HgN/A
9:00 AM66 °FMild.6 mph74%30.07 "HgN/A
8:00 AM64 °FMild.6 mph78%30.04 "HgN/A
7:00 AM61 °FCool.6 mph86%30.02 "HgN/A
6:00 AM60 °FCool.6 mph89%29.99 "HgN/A
5:00 AM61 °FCool.6 mph91%29.96 "HgN/A
4:00 AM61 °FCool.6 mph94%29.92 "HgN/A
3:00 AM62 °FCool.5 mph92%29.89 "HgN/A
2:00 AM63 °FMild.7 mph92%29.86 "HgN/A
1:00 AM63 °FMild.8 mph93%29.86 "HgN/A
12:00 AM64 °FMild.6 mph94%29.84 "HgN/A
11:00 PM
Jul 21
64 °FMild.6 mph95%29.79 "HgN/A
10:00 PM64 °FMild.6 mph91%29.82 "HgN/A
9:00 PM64 °FMild.6 mph94%29.79 "HgN/A
8:00 PM65 °FMild.13 mph91%29.78 "HgN/A
7:00 PM68 °FMild.10 mph90%29.79 "HgN/A
6:00 PM71 °FMild.2 mph87%29.81 "HgN/A
5:00 PM75 °FMild.8 mph77%29.78 "HgN/A
4:00 PM75 °FMild.3 mph70%29.80 "HgN/A
3:00 PM76 °FMild.8 mph67%29.79 "HgN/A
Weather by CustomWeather, © 2014

See weather overviewHow to use our weather pages